GW2660 Weather Reports


Display with metric or nautical units.
time (UTC)temp
F
wind
direction
speed
MPH
gust
MPH
rain 1hr
in
rain 24hr
in
rain mn
in
humidity
%
barometer
mb
20260504035618 59 146 1.0 7.0 0.00 0.07 0.07 67 1007.1
20260504035114 59 249 1.0 8.0 0.00 0.07 0.07 67 1007.4
20260504034612 59 269 0.0 4.0 0.00 0.07 0.07 66 1007.5
20260504034109 59 210 3.0 6.0 0.00 0.07 0.07 66 1007.4
20260504033607 59 209 2.0 5.0 0.00 0.07 0.07 66 1007.5
20260504033104 59 110 2.0 5.0 0.00 0.07 0.07 65 1007.6
20260504032601 59 342 2.0 6.0 0.00 0.07 0.07 65 1007.7
20260504032058 59 155 0.0 5.0 0.00 0.07 0.07 64 1007.7
20260504031555 59 191 3.0 5.0 0.00 0.07 0.07 64 1007.6
20260504031051 59 114 1.0 7.0 0.00 0.07 0.07 63 1007.8
20260504030548 59 139 2.0 5.0 0.00 0.07 0.07 63 1007.9
20260504030044 59 233 3.0 5.0 0.00 0.07 0.07 63 1007.9
20260504025542 59 29 0.0 5.0 0.00 0.07 0.07 63 1007.7
20260504025038 59 240 1.0 3.0 0.00 0.07 0.07 63 1007.8
20260504024535 59 189 2.0 5.0 0.00 0.07 0.07 63 1007.7
20260504024032 59 42 1.0 3.0 0.00 0.07 0.07 63 1007.8
20260504023529 60 297 0.0 5.0 0.00 0.07 0.07 62 1007.7
20260504023025 60 89 0.0 4.0 0.00 0.07 0.07 62 1007.8
20260504022520 60 129 0.0 3.0 0.00 0.07 0.07 61 1007.8
20260504022017 61 156 0.0 5.0 0.00 0.07 0.07 60 1007.5
20260504021515 61 159 2.0 5.0 0.00 0.07 0.07 60 1007.5
20260504021012 61 88 2.0 4.0 0.00 0.07 0.07 60 1007.7
20260504020508 61 201 0.0 4.0 0.00 0.07 0.07 60 1007.5
20260504020005 61 75 0.0 3.0 0.00 0.07 0.07 60 1007.5
20260504015501 61 243 1.0 4.0 0.00 0.07 0.07 59 1007.5
20260504014957 62 262 1.0 4.0 0.00 0.07 0.07 58 1007.4
20260504014453 62 121 2.0 3.0 0.00 0.07 0.07 58 1007.6
20260504013950 62 316 0.0 3.0 0.00 0.07 0.07 58 1007.4
20260504013449 62 135 2.0 4.0 0.00 0.07 0.07 58 1007.4
20260504012944 62 200 3.0 4.0 0.00 0.07 0.07 57 1007.1
20260504012443 62 236 1.0 5.0 0.00 0.07 0.07 57 1007.1
20260504011940 63 197 1.0 4.0 0.00 0.07 0.07 57 1007.2
20260504011436 63 345 0.0 5.0 0.00 0.07 0.07 56 1007.3
20260504010932 63 271 1.0 4.0 0.00 0.07 0.07 56 1007.2
20260504010429 64 279 2.0 6.0 0.00 0.07 0.07 55 1007.2
20260504005925 64 257 3.0 5.0 0.00 0.07 0.07 55 1007.3
20260504005422 64 259 3.0 7.0 0.00 0.07 0.07 54 1007.3
20260504004919 64 262 3.0 5.0 0.00 0.07 0.07 54 1007.3
20260504004417 65 151 4.0 7.0 0.00 0.07 0.07 53 1007.2
20260504003914 65 243 2.0 6.0 0.00 0.07 0.07 52 1007.1
20260504003410 66 246 1.0 8.0 0.00 0.07 0.07 52 1007.1
20260504002907 66 279 4.0 8.0 0.00 0.07 0.07 51 1007.1
20260504002404 66 172 2.0 5.0 0.00 0.07 0.07 51 1007.1
20260504001901 66 244 2.0 7.0 0.00 0.07 0.07 51 1007.1
20260504001359 66 161 7.0 16.0 0.00 0.07 0.07 50 1007.1
20260504000855 67 184 4.0 10.0 0.00 0.07 0.07 49 1007.3
20260504000354 67 244 3.0 7.0 0.00 0.07 0.07 49 1007.0
20260503235849 67 252 3.0 13.0 0.00 0.07 0.07 49 1007.1
20260503235347 67 234 1.0 6.0 0.00 0.07 0.07 49 1007.3
20260503234844 68 349 2.0 4.0 0.00 0.07 0.07 49 1007.1
20260503234342 69 296 4.0 8.0 0.00 0.07 0.07 47 1007.4
20260503233840 69 271 3.0 8.0 0.00 0.07 0.07 46 1007.3
20260503233336 69 311 3.0 7.0 0.00 0.07 0.07 45 1007.3
20260503232832 69 269 3.0 11.0 0.00 0.07 0.07 46 1007.3
20260503232330 70 278 5.0 9.0 0.00 0.07 0.07 45 1007.2
20260503231827 70 244 2.0 6.0 0.00 0.07 0.07 45 1007.1
20260503231324 70 305 4.0 8.0 0.00 0.07 0.07 44 1007.5
20260503230820 70 237 2.0 14.0 0.00 0.07 0.07 45 1007.4
20260503230317 70 291 11.0 11.0 0.00 0.07 0.07 45 1007.4
20260503225815 70 265 5.0 12.0 0.00 0.07 0.07 45 1007.3
20260503225310 70 274 6.0 22.0 0.00 0.07 0.07 44 1007.5
20260503224807 70 311 8.0 11.0 0.00 0.07 0.07 43 1007.4
20260503224305 69 313 3.0 18.0 0.00 0.07 0.07 44 1007.4
20260503223802 68 237 2.0 18.0 0.00 0.07 0.07 46 1007.6
20260503223300 68 243 4.0 9.0 0.00 0.07 0.07 47 1007.5
20260503222755 68 252 6.0 13.0 0.00 0.07 0.07 45 1007.7
20260503222254 68 267 5.0 13.0 0.00 0.07 0.07 44 1007.6
20260503221752 70 206 6.0 7.0 0.00 0.07 0.07 43 1007.7
20260503221249 70 206 2.0 13.0 0.00 0.07 0.07 43 1007.6
20260503220745 69 283 4.0 9.0 0.00 0.07 0.07 44 1007.6
20260503220243 69 237 4.0 15.0 0.00 0.07 0.07 43 1007.7
20260503215739 70 214 9.0 11.0 0.00 0.07 0.07 41 1007.8
20260503215236 70 268 5.0 17.0 0.00 0.07 0.07 42 1007.8
20260503214734 70 237 5.0 7.0 0.00 0.07 0.07 41 1007.5
20260503214231 69 212 5.0 10.0 0.00 0.07 0.07 42 1007.8
20260503213729 68 263 8.0 11.0 0.00 0.07 0.07 43 1007.9
20260503213226 68 8 0.0 11.0 0.00 0.07 0.07 44 1008.1
20260503212723 69 185 3.0 15.0 0.00 0.07 0.07 43 1008.1
20260503212221 69 242 4.0 9.0 0.00 0.07 0.07 43 1008.2
20260503211718 67 163 5.0 9.0 0.00 0.07 0.07 44 1008.2
20260503211214 68 263 5.0 13.0 0.00 0.07 0.07 43 1008.5
20260503210709 68 160 4.0 13.0 0.00 0.07 0.07 43 1008.4
20260503210207 67 254 10.0 14.0 0.00 0.07 0.07 44 1008.6
20260503205703 68 255 4.0 10.0 0.00 0.07 0.07 43 1008.5
20260503205159 67 276 4.0 19.0 0.00 0.07 0.07 44 1008.9
20260503204655 66 130 3.0 19.0 0.00 0.07 0.07 44 1008.6
20260503204153 68 169 4.0 19.0 0.00 0.07 0.07 43 1009.2
20260503203650 66 261 3.0 20.0 0.00 0.07 0.07 45 1009.3
20260503203148 66 281 4.0 21.0 0.00 0.07 0.07 45 1009.3
20260503202644 66 144 7.0 14.0 0.00 0.07 0.07 44 1009.5
20260503202143 68 272 3.0 12.0 0.00 0.07 0.07 43 1009.6
20260503201641 65 264 7.0 17.0 0.00 0.07 0.07 44 1009.4
20260503201137 65 226 12.0 19.0 0.00 0.07 0.07 43 1009.6
20260503200633 65 288 6.0 12.0 0.00 0.07 0.07 43 1009.7
20260503200130 65 71 5.0 21.0 0.00 0.07 0.07 44 1009.8
20260503195627 65 199 5.0 14.0 0.00 0.07 0.07 44 1009.8
20260503195124 66 208 6.0 20.0 0.00 0.07 0.07 42 1010.0
20260503194621 68 266 6.0 25.0 0.00 0.07 0.07 42 1009.9
20260503194116 68 335 3.0 13.0 0.00 0.07 0.07 43 1010.0
20260503193613 66 14 6.0 13.0 0.00 0.07 0.07 44 1009.9
20260503193109 65 101 3.0 13.0 0.00 0.07 0.07 45 1010.2
20260503192604 65 144 8.0 17.0 0.00 0.07 0.07 46 1010.2
20260503192101 65 269 9.0 17.0 0.00 0.07 0.07 46 1010.2
20260503191557 65 301 4.0 9.0 0.00 0.07 0.07 49 1010.4
20260503191054 65 71 0.0 10.0 0.00 0.07 0.07 50 1010.2
20260503190551 65 27 2.0 12.0 0.00 0.07 0.07 53 1010.4
20260503190048 64 144 4.0 13.0 0.00 0.07 0.07 53 1010.6
20260503185539 63 151 1.0 24.0 0.00 0.07 0.07 53 1010.3
20260503185038 63 314 1.0 14.0 0.00 0.07 0.07 57 1010.5
20260503184535 62 178 3.0 12.0 0.00 0.07 0.07 58 1010.7
20260503184032 61 266 7.0 13.0 0.00 0.07 0.07 60 1010.9
20260503183528 61 266 7.0 13.0 0.00 0.07 0.07 60 1010.9
20260503183025 61 210 3.0 9.0 0.00 0.07 0.07 62 1011.0
20260503182524 60 255 3.0 11.0 0.00 0.07 0.07 63 1011.0
20260503182021 59 203 1.0 7.0 0.00 0.07 0.07 67 1011.2
20260503181518 59 271 5.0 10.0 0.00 0.07 0.07 69 1011.4
20260503181014 59 152 3.0 9.0 0.00 0.07 0.07 67 1011.4
20260503180512 59 158 3.0 7.0 0.00 0.07 0.07 69 1011.6
20260503180009 57 289 0.0 7.0 0.00 0.07 0.07 74 1011.6
20260503175507 56 302 4.0 9.0 0.00 0.07 0.07 73 1012.0
20260503175003 56 59 2.0 7.0 0.00 0.07 0.07 74 1012.0
20260503174501 55 50 1.0 5.0 0.00 0.07 0.07 80 1012.2
20260503173956 53 40 2.0 6.0 0.00 0.07 0.07 82 1012.3
20260503173452 52 338 2.0 4.0 0.02 0.07 0.07 84 1012.5
20260503172949 50 330 2.0 6.0 0.02 0.07 0.07 86 1012.3
20260503172446 49 76 2.0 7.0 0.00 0.07 0.07 87 1012.8
20260503171943 49 106 3.0 4.0 0.00 0.07 0.07 87 1012.9
20260503171439 49 67 0.0 3.0 0.00 0.07 0.07 87 1013.3
20260503170937 48 232 2.0 5.0 0.00 0.07 0.07 88 1013.7
20260503170433 48 120 2.0 6.0 0.00 0.07 0.07 90 1013.8
20260503150825 48 284 4.0 5.0 0.12 0.02 0.02 84 1016.1
20260503150321 50 260 4.0 11.0 0.05 0.01 0.01 78 1016.1
20260503140246 51 276 3.0 8.0 0.00 0.00 0.00 64 1015.7
20260503131215 51 265 2.0 8.0 0.00 0.00 0.00 63 1015.8
20260503130713 50 202 4.0 8.0 0.00 0.00 0.00 63 1015.5
20260503130210 50 147 3.0 9.0 0.00 0.00 0.00 63 1015.9
20260503120136 48 198 1.0 5.0 0.00 0.00 0.00 64 1015.7
20260503110603 46 112 2.0 4.0 0.00 0.00 0.00 65 1015.5
20260503090450 44 182 3.0 3.0 0.00 0.00 0.00 67 1016.2
20260503081417 44 163 1.0 3.0 0.00 0.00 0.00 65 1016.4
20260503080914 44 175 0.0 2.0 0.00 0.00 0.00 66 1016.2
20260503080410 44 139 0.0 4.0 0.00 0.00 0.00 66 1016.3
20260503072846 42 68 0.0 2.0 0.00 0.00 0.00 72 1016.4
20260503072343 42 39 0.0 3.0 0.00 0.00 0.00 71 1016.5
20260503071840 43 88 1.0 2.0 0.00 0.00 0.00 70 1016.5
20260503071337 43 87 1.0 2.0 0.00 0.00 0.00 69 1016.4
20260503070833 44 93 2.0 3.0 0.00 0.00 0.00 67 1016.5
20260503070332 44 122 0.0 2.0 0.00 0.00 0.00 62 1016.5
20260503060256 45 180 0.0 2.0 0.00 0.00 0.00 59 1017.0
20260503054743 45 147 0.0 2.0 0.00 0.00 0.00 58 1017.2
20260503054240 45 170 2.0 3.0 0.00 0.00 0.00 57 1017.3
20260503053738 45 227 0.0 2.0 0.00 0.00 0.00 58 1017.5
20260503053237 45 342 0.0 2.0 0.00 0.00 0.00 58 1017.1
20260503052732 45 183 0.0 2.0 0.00 0.00 0.00 58 1017.3
20260503052229 44 164 0.0 2.0 0.00 0.00 0.00 60 1017.2
20260503051724 44 26 0.0 2.0 0.00 0.00 0.00 59 1017.3
20260503051222 45 104 0.0 1.0 0.00 0.00 0.00 58 1017.5
20260503050719 46 186 0.0 2.0 0.00 0.00 0.00 57 1017.4
20260503050215 46 89 0.0 2.0 0.00 0.00 0.00 57 1017.4
20260503045713 46 232 2.0 5.0 0.00 0.00 0.00 57 1017.4
20260503045210 46 294 1.0 2.0 0.00 0.00 0.00 58 1017.5
20260503044707 46 283 0.0 4.0 0.00 0.00 0.00 58 1017.5
20260503044204 46 109 0.0 3.0 0.00 0.00 0.00 58 1017.5
20260503043700 46 6 0.0 3.0 0.00 0.00 0.00 58 1017.4
20260503043158 46 32 0.0 2.0 0.00 0.00 0.00 58 1017.5
20260503042653 45 246 0.0 2.0 0.00 0.00 0.00 58 1017.7
20260503042145 46 254 0.0 3.0 0.00 0.00 0.00 58 1017.6
20260503041641 46 22 0.0 2.0 0.00 0.00 0.00 57 1017.6
20260503041139 45 121 0.0 2.0 0.00 0.00 0.00 59 1017.7
20260503040636 45 121 0.0 2.0 0.00 0.00 0.00 59 1017.7
20260503040134 45 229 0.0 1.0 0.00 0.00 0.00 58 1017.8